Hourly Data Report for November 08, 2017

All times are specified in Local Standard Time (LST). Add 1 hour to adjust for Daylight Saving Time where and when it is observed.

GREENWOOD A
NOVA SCOTIA

44°59'00.000" N
64°55'00.000" W
28.00 m
8202000
71397
YZX

Download Data

Hourly Data (November 2017)
Hourly Data Report for November 8, 2017
Temp Definition
°C
Dew Point Temp Definition
°C
Rel Hum Definition
%
Wind Dir Definition
10's deg

Wind Spd Definition
km/h
Visibility Definition
km
Stn Press Definition
kPa
Hmdx Definition


Wind Chill Definition


Weather Definition


TIME
00:00 4.1 -0.7 71 33 4 24.1 102.11     Cloudy
01:00 3.6 1.1 84 34 13 24.1 102.18     Cloudy
02:00 2.9 1.5 90 36 11 19.3 102.16     Rain Showers
03:00 2.9 1.5 90 36 7 24.1 102.21     Rain Showers
04:00 2.9 1.9 93 5 13 24.1 102.13     Cloudy
05:00 2.8 1.3 90 4 7 24.1 102.15     Cloudy
06:00 2.4 0.8 89 6 9 24.1 102.21     Cloudy
07:00 2.8 -0.3 80 6 9 24.1 102.19     Cloudy
08:00 2.7 0.1 83 5 9 24.1 102.28     Cloudy
09:00 3.0 -0.1 80 5 11 24.1 102.33     Cloudy
10:00 3.3 -0.6 76 5 9 24.1 102.28     Cloudy
11:00 3.7 -1.5 69 7 15 24.1 102.26     Cloudy
12:00 4.1 -1.5 67 5 19 24.1 102.17     Cloudy
13:00 4.7 -1.4 65 7 24 24.1 102.11     Cloudy
14:00 5.0 -1.3 64 5 24 24.1 102.07     Cloudy
15:00 5.0 -1.3 64 5 17 24.1 102.05     Cloudy
16:00 5.0 -0.4 68 5 13 24.1 102.04     Cloudy
17:00 5.0 0.1 71 5 7 24.1 102.04     Cloudy
18:00 4.8 0.7 75 6 11 24.1 102.08     Rain Showers
19:00 4.2 1.5 83 4 6 24.1 102.07     Mostly Cloudy
20:00 4.4 1.2 80 6 4 24.1 102.07     Mostly Cloudy
21:00 4.5 1.3 80 7 6 24.1 102.06     Mostly Cloudy
22:00 4.6 1.2 79 4 9 24.1 102.07     Cloudy
23:00 4.6 1.2 79 4 6 24.1 102.08     Cloudy

Notes on Data Quality.

Legend

  • E = Estimated
  • M = Missing
  • NA = Not Available
  • ‡ = Partner data that is not subject to review by the National Climate Archives
Date modified: